< < Back
Terminal Aerodrome Forecast


Current Version              Previous Versions:   1  2  3  4  5  6  7  8  9  

Terminal Aerodrome Forecast

553
FTUS42 KILM 060520
TAFFLO
TAF
KFLO 060520Z 0606/0706 20004KT P6SM FEW030 SCT120
     FM061300 24009KT P6SM VCSH SCT025 SCT120
     FM061800 21008KT P6SM VCTS SCT025 SCT050CB BKN120
     FM070200 18003KT P6SM FEW030 SCT150=

Latest METAR

096
SAUS70 KWBC 071500 RRI
MTRFLO
METAR KFLO 071453Z 19006KT 10SM CLR 31/21 A3014 RMK AO2 SLP204 T03060211
50002


USA.gov is the U.S. government's official web portal to all federal, state and local government web resources and services.